Regional Weather Roundup
Issued by NWS

Home | Current Version | Previous Version | Graphics & Text | Print | Product List | Glossary On
Versions: 1 2 3 4 5 6 7 8 9 10 11 12 13 14 15 16 17 18 19 20 21 22 23 24 25 26 27 28 29 30 31 32 33 34 35 36 37 38 39 40 41 42 43 44 45 46 47 48 49 50
000
ASUS43 KMPX 190201
RWRMN
WEATHER ROUNDUP FOR MINNESOTA
NATIONAL WEATHER SERVICE TWIN CITIES/CHANHASSEN MN
900 PM CDT WED OCT 18 2017


NOTE: "FAIR" INDICATES FEW OR NO CLOUDS BELOW 12,000 FEET WITH NO
SIGNIFICANT WEATHER AND/OR OBSTRUCTIONS TO VISIBILITY. N/A MEANS
CURRENT SKY AND/OR WEATHER CONDITIONS ARE NOT AVAILABLE.

MNZ060>063-068>070-190300-
   Twin Cities Metro

CITY           SKY/WX    TMP DP  RH WIND       PRES   REMARKS
TWIN CITIES    CLOUDY    56  25  30 W12       29.98R
ST PAUL        CLOUDY    56  24  29 W13       29.98R
CRYSTAL        PTCLDY    55  23  28 W12       29.97R
BLAINE         MOCLDY    57  25  28 W12G18    29.96R
LAKEVILLE      CLOUDY    54  28  37 W6        29.99R
EDEN PRAIRIE   CLOUDY    55  26  32 W9        29.98R
SOUTH ST PAUL  CLOUDY    57  23  26 W8        29.97R
LAKE ELMO      FAIR      54  27  35 W13G18    29.97S
$$
MNZ001>005-007-008-013>017-022>024-027-028-190300-
   Northwest Minnesota

CITY           SKY/WX    TMP DP  RH WIND       PRES   REMARKS
BEMIDJI        CLEAR     48  17  28 W13G18    29.85S
HALLOCK        CLEAR     52  10  19 W17       29.79S
ROSEAU         CLEAR     52  14  22 W18G26    29.75R
WARROAD        CLEAR     50  19  29 W16G26    29.73S
CROOKSTON      CLEAR     48  18  29 W13       29.89R
FOSSTON        CLEAR     46  16  29 W10       29.89R
DETROIT LAKES  CLEAR     52  21  30 W16G24    29.92F
MOORHEAD       CLEAR     48  21  34 SW8       29.95S
PARK RAPIDS    LGT RAIN  47  21  35 W12       29.90R
MAHNOMEN       FAIR      47  21  35 W12       29.91R
$$
MNZ006-009>011-018-025>026-190300-
   North Central Minnesota

CITY           SKY/WX    TMP DP  RH WIND       PRES   REMARKS
BAUDETTE       CLEAR     51  15  23 W18G31    29.74R
FLAG ISLAND    CLEAR     52  16  24 W23G30    29.65S
INTL FALLS     CLEAR     51  14  22 W12G22    29.73R
WASKISH        CLEAR     52  28  40 W17G28    29.79S
BIG FORK       CLEAR     52  12  20 W14G22    29.79S
LONGVILLE      CLEAR     52  16  24 W9G16     29.87R
GRAND RAPIDS   CLEAR     53  17  24 W14G20    29.86R
CRANE LAKE     CLEAR     50  12  22 W7        29.75S
ORR            CLEAR     52  10  19 W15G22    29.74R
COOK           CLEAR     50  16  25 SW12G17   29.78R
WALKER         FAIR      50  17  26 W12       29.87R
$$
MNZ012-019>021-037-190300-
   Northeast Minnesota

CITY           SKY/WX    TMP DP  RH WIND       PRES   REMARKS
DULUTH         CLOUDY    50  18  28 W13       29.83R
ELY            CLEAR     52  12  20 W15G26    29.75S
HIBBING        CLEAR     50  16  25 W9G17     29.81R
EVELETH        CLEAR     53  -4   9 W13G18    29.81S
DULUTH HARBOR  CLOUDY    57  21  24 W17       29.84R
TWO HARBORS    PTCLDY    57  25  28 W14G22    29.78R
SILVER BAY     CLEAR     54  16  22 W7        29.75R
GRAND MARAIS     N/A     54  21  27 W10G18    29.71R
G MARAIS ARPRT CLEAR     48  10  21 W13G21    29.72R
$$
MNZ029>031-032-039>041-046>048-054>057-064-190300-
   West Central Minnesota

CITY           SKY/WX    TMP DP  RH WIND       PRES   REMARKS
FERGUS FALLS   CLOUDY    43  27  52 W6        29.97F
WHEATON        CLOUDY    48  28  46 SW6       30.01S
MORRIS         CLEAR     45  34  65 W8        29.99S
ALEXANDRIA     CLEAR     50  23  34 W10       29.99R
ELBOW LAKE     FAIR      45  26  48 SW9       29.99R
WADENA         CLOUDY    46  25  42 W7        29.92S
GLENWOOD       CLEAR     46  30  53 W10       29.99S
APPLETON       CLEAR     46  30  53 W8        30.01S
BENSON         CLEAR     45  32  61 W7        30.02S
ORTONVILLE     CLEAR     48  30  49 CALM      30.01S
MADISON        CLEAR     52  32  46 W8        30.03R
WILLMAR        FAIR      48  34  57 W9        30.02S
$$
MNZ033>034-036-042>043-049>051-058-059-190300-
   Central Minnesota

CITY           SKY/WX    TMP DP  RH WIND       PRES   REMARKS
ST CLOUD       CLEAR     50  29  44 W10       29.97R
SAUK CENTRE    FAIR      48  28  47 W8        29.98R
PAYNESVILLE    CLEAR     45  32  60 W7        30.00R
AITKIN         CLEAR     52  16  24 W9        29.89R
PINE RIVER     PTCLDY    48  19  32 W5        29.93S
BRAINERD       CLEAR     50  17  27 W10       29.92R
STAPLES        CLOUDY    48  18  29 W8        29.93R
LONG PRAIRIE   FAIR      50  27  40 SW8       29.97R
LITTLE FALLS   CLEAR     50  12  22 W7        29.95R
LITCHFIELD     CLOUDY    54  30  40 W7        30.01S
BUFFALO        CLOUDY    53  26  35 W9        29.99S
MAPLE LAKE     PTCLDY    54  30  39 W5        30.00R
HUTCHINSON     CLEAR     46  33  59 W5        30.02S
$$
MNZ037-044-045-052-053-190300-
   East Central Minnesota

CITY           SKY/WX    TMP DP  RH WIND       PRES   REMARKS
PRINCETON      CLEAR     54  27  35 SW10      29.96R
MORA           CLEAR     50  27  40 W6        29.95R
CAMBRIDGE      CLEAR     57  34  41 SW7       29.95R
RUSH CITY      MOCLDY    54  27  35 W7G17     29.94R
MOOSE LAKE     CLOUDY    52  23  32 W8        29.87R
HINCKLEY       FAIR      52  27  37 W12       29.91R
CLOQUET        CLOUDY    52  10  19 SW8       29.85R
MCGREGOR       CLEAR     54  18  24 W9G16     29.89R
$$
MNZ071>073-080-081-089-090-097-098-190300-
   Southwest Minnesota

CITY           SKY/WX    TMP DP  RH WIND       PRES   REMARKS
MONTEVIDEO     CLOUDY    48  28  46 NW5       30.03R
GRANITE FALLS  CLOUDY    46  33  61 W5        30.04S
CANBY          CLEAR     49  32  51 W8        30.04S
MARSHALL       CLOUDY    46  33  60 W8        30.04R
REDWOOD FALLS  CLOUDY    51  26  37 W5        30.03R
OLIVIA         CLOUDY    46  32  57 SW3       30.02R
PIPESTONE      CLEAR     48  30  49 CALM      30.05S
WORTHINGTON    CLEAR     46  34  62 NW3       30.05S
JACKSON        CLOUDY    50  32  50 W3        30.04S
TRACY          CLOUDY    50  33  51 W5        30.04S
SLAYTON        CLOUDY    45  30  55 W3        30.05S
$$
MNZ065>067-074>077-082>085-091>093-190300-
   South Central Minnesota

CITY           SKY/WX    TMP DP  RH WIND       PRES   REMARKS
MANKATO        CLOUDY    54  29  38 NW9       30.02R
NEW ULM          N/A     52  27  37 NW5       30.02S
ST JAMES       CLOUDY    46  32  57 CALM      30.04R
FAIRMONT       CLEAR     52  33  48 NW6       30.03S
GLENCOE        CLOUDY    53  29  39 W6        30.00S
FARIBAULT      PTCLDY    55  28  35 W12       30.01R
OWATONNA       CLOUDY    50  34  53 W8        30.01R
WASECA         CLOUDY    52  32  46 NW6       30.03R
$$
MNZ078>079-086>088-094>096-190300-
   Southeast Minnesota

CITY           SKY/WX    TMP DP  RH WIND       PRES   REMARKS
ROCHESTER      CLEAR     55  39  54 W10       29.99R
RED WING       CLEAR     59  18  20 W13G18    29.96R
STANTON        CLEAR     54  31  41 W8        29.99R
DODGE CENTER   CLEAR     55  28  35 W9        29.99R
WINONA         PTCLDY    63  36  36 W12G17    29.95R
AUSTIN         CLEAR     57  30  35 NW7       30.00R
PRESTON        CLEAR     55  42  61 W8        29.99R
$$
ABBREVIATIONS USED IN REMARKS
   TC - TEMPERATURES IN CELSIUS
  WCI - WIND CHILL INDEX
   HX - HEAT INDEX
  VSB - VISIBILITY
$$



USA.gov is the U.S. government's official web portal to all federal, state and local government web resources and services.